Regional Weather Roundup
Issued by NWS

Home | Current Version | Previous Version | Text Only | Print | Product List | Glossary Off
Versions: 1 2 3 4 5 6 7 8 9 10 11 12 13 14 15 16 17 18 19 20 21 22 23 24 25 26 27 28 29 30 31 32 33 34 35 36 37 38 39 40 41 42 43 44 45 46 47 48 49 50

000
ASUS45 KBOI 010410
RWRID

IDAHO REGIONAL WEATHER ROUNDUP
NATIONAL WEATHER SERVICE BOISE ID
1000 PM MDT SUN MAY 31 2015

NOTE: "FAIR" INDICATES FEW OR NO CLOUDS BELOW 12000 FEET
WITH NO SIGNIFICANT WEATHER AND/OR OBSTRUCTIONS TO VISIBILITY

IDZ012-014-010500-
SOUTHWEST IDAHO


CITY           SKY/WX    TMP DP  RH WIND       PRES   REMARKS
BOISE          PTCLDY    78  46  32 SE5       29.77R
CALDWELL       PTCLDY    72  50  46 CALM      29.75R
MOUNTAIN HOME  CLOUDY    82  46  28 SE38G46   29.80R
$$

IDZ016-017-010500-
SOUTHCENTRAL IDAHO


CITY           SKY/WX    TMP DP  RH WIND       PRES   REMARKS
BURLEY         CLOUDY    68  50  52 N10       29.92F
JEROME         TSTM      65  54  67 N15       29.95R
TWIN FALLS     CLOUDY    68  52  56 NW12      29.90F
$$

IDZ019>023-010500-
SOUTHEAST IDAHO


CITY           SKY/WX    TMP DP  RH WIND       PRES   REMARKS
IDAHO FALLS    RAIN      64  50  60 S13G40    30.05R
POCATELLO      CLEAR     66  48  52 NE6       30.00R
REXBURG        CLOUDY    67  45  45 SW13G24   30.02R
$$

IDZ006-010-011-018-031-032-010500-
CENTRAL IDAHO MOUNTAINS


CITY           SKY/WX    TMP DP  RH WIND       PRES   REMARKS
MCCALL         CLOUDY    63  46  54 NE3       29.91F
HAILEY         MOCLDY    66  45  45 NW7       29.99S
STANLEY          N/A     57  39  51 SE3       30.06R
SALMON           N/A     64  54  68 SE6       29.87R
CHALLIS        CLOUDY    72  29  20 SW10      29.94S
$$

IDZ002-004-006-007-026-010500-
NORTHERN IDAHO


CITY           SKY/WX    TMP DP  RH WIND       PRES   REMARKS
LEWISTON       CLOUDY    72  60  66 E9        29.74F
LOWELL           N/A     68  61  78 CALM      29.75R
COEUR D`ALENE  MOCLDY    70  45  40 CALM      29.79S
MULLAN PASS    CLOUDY    58  39  49 W3        30.00R
$$


USA.gov is the U.S. government's official web portal to all federal, state and local government web resources and services.